Tracking 35237 objects as of 5-Sep-2026
HD Live streaming from Space Station
objects crossing your sky now

STARLINK-35194

Track STARLINK-35194 now!
10-day predictions
STARLINK-35194 is classified as:


NORAD ID: 65671
Int'l Code: 2025-211V
Launch date: September 19, 2025
Source: United States (US)
Launch site: AIR FORCE WESTERN TEST RANGE (AFWTR)
Your satellite tracking list
Your tracking list is empty




NASA's NSSDC Master Catalog

Two Line Element Set (TLE):
1 65671U 25211V   26248.06380544  .00010926  00000-0  34020-3 0  9998
2 65671  97.2858 288.4577 0001457 107.1820 252.9583 15.33450410 54158
Source of the keplerian elements: AFSPC